GFSFLT2_prec_cloud_045.txt.gz
Cloud_Cover
100 100 100 100 100 100 100 100 94 100 100 100 100 100 27 8 5 92 51 100 100 9 5 23 67 44 8 5 5 0 0 0
100 100 100 100 100 100 100 100 100 98 100 100 100 99 100 57 100 100 100 100 93 13 98 100 65 26 0 2 5 0 0 0
100 100 100 100 100 100 100 100 100 100 100 100 100 100 99 100 100 100 100 100 100 100 100 100 58 17 20 5 5 0 12 74
100 100 100 100 100 100 100 100 100 100 100 100 100 100 100 100 100 100 100 100 100 100 100 70 46 74 10 5 81 55 96 15
100 100 100 100 100 100 100 100 94 100 96 100 100 97 100 100 100 100 100 100 100 100 100 100 100 77 69 100 100 100 95 93
100 100 100 100 100 100 100 100 100 100 100 100 100 100 100 100 100 100 100 100 100 100 100 100 100 100 100 100 90 98 98 96
100 100 100 100 100 84 100 100 100 100 100 100 100 100 100 100 100 100 100 100 100 100 100 100 100 100 100 100 100 100 100 100
100 100 100 100 100 100 73 100 100 100 100 99 100 100 100 100 100 99 100 100 100 100 100 100 100 100 100 100 100 100 100 100
100 100 100 100 100 100 100 100 100 100 100 100 100 100 100 100 100 100 100 100 100 100 100 100 100 100 100 100 100 100 100 93
100 100 100 100 100 100 100 100 100 99 100 100 100 100 100 100 100 100 100 100 100 100 100 100 78 100 100 100 99 100 100 100
100 100 100 100 100 100 100 100 100 100 100 100 100 100 100 100 100 100 100 100 100 100 100 100 100 73 100 100 100 100 100 100
76 100 100 100 100 100 100 100 100 100 100 100 100 100 100 100 100 100 100 100 100 100 100 100 100 100 100 100 100 100 89 30
97 92 100 100 100 100 100 28 100 100 100 100 100 100 100 100 100 100 100 100 100 100 100 100 100 100 100 100 100 100 100 7
71 100 100 100 100 98 94 100 98 87 100 100 100 100 100 100 100 100 100 100 100 100 100 100 100 100 100 100 98 58 7 43
100 100 69 6 42 84 65 86 90 100 100 100 100 100 100 100 100 100 100 100 100 100 100 100 100 100 100 99 5 68 45 23
100 100 100 100 11 84 100 100 100 100 100 100 100 100 100 100 100 100 100 100 100 100 100 100 99 100 100 98 80 92 98 100
100 100 100 100 100 100 100 100 100 100 100 100 100 100 100 100 100 100 100 99 100 100 82 100 100 100 100 100 100 100 100 75
100 100 100 100 100 100 100 100 100 100 98 100 99 72 96 100 100 100 96 91 84 96 100 100 100 100 100 100 100 92 92 89
87 100 100 100 100 100 100 100 100 100 100 100 100 100 100 100 100 99 88 100 98 100 100 100 100 100 100 100 100 100 100 100
96 11 35 38 73 58 98 69 87 29 18 11 87 89 100 100 100 100 100 100 100 99 100 100 100 100 100 100 100 100 100 100

GFSFLT2_prec_cloud_048.txt.gz
Cloud_Cover
100 100 100 100 100 100 100 100 100 30 97 89 100 100 100 100 100 82 16 5 6 51 90 29 74 100 8 11 6 5 2 1
100 100 100 100 100 100 100 100 100 78 96 100 100 98 92 90 96 99 92 100 100 100 100 97 99 100 79 71 62 4 5 0
100 100 100 100 100 100 100 100 100 100 100 100 100 98 65 100 100 100 100 95 100 100 100 100 100 100 100 91 5 1 16 5
100 100 100 100 100 100 100 100 100 100 100 100 98 94 100 100 100 100 100 100 100 100 100 100 100 100 100 100 91 82 58 10
100 100 100 100 100 100 100 100 100 100 100 100 100 90 96 100 100 97 70 99 100 100 100 97 100 100 100 100 100 99 100 100
100 100 100 100 100 100 100 100 100 100 100 96 100 92 99 100 100 97 69 91 100 90 100 99 100 100 100 100 98 99 100 100
100 100 100 100 100 100 100 100 100 100 96 99 100 100 98 93 89 39 86 93 67 86 100 100 100 100 100 100 100 100 100 100
100 100 100 100 100 100 100 100 100 100 100 100 100 100 98 99 55 98 100 95 65 80 99 100 100 100 100 100 100 100 100 100
100 100 100 100 100 100 100 100 100 100 100 100 99 97 100 88 90 100 100 100 94 94 100 100 100 100 100 100 100 100 100 100
100 100 100 100 100 100 100 100 100 100 100 100 99 98 100 100 100 94 76 94 98 100 100 100 100 100 100 97 31 96 100 100
100 100 100 100 100 100 100 100 100 100 100 100 100 100 100 100 100 91 14 62 100 100 100 83 94 100 100 100 100 100 100 100
100 100 100 100 100 100 100 100 100 100 100 100 100 100 100 100 73 5 5 96 90 98 100 100 100 100 100 100 100 71 23 100
100 100 100 100 100 100 100 100 100 100 100 100 100 100 100 100 100 34 39 93 99 100 100 100 100 100 100 100 100 100 100 100
100 100 100 100 100 100 100 100 100 100 100 100 100 100 100 100 100 100 100 100 100 90 99 100 100 100 100 100 100 100 100 100
100 100 100 100 100 100 100 100 100 100 100 100 100 100 100 94 94 100 100 100 100 100 100 100 100 100 100 100 100 100 100 100
100 100 100 100 100 100 100 100 100 100 100 100 100 91 72 93 100 100 100 100 100 100 100 100 100 100 100 100 100 100 100 100
100 100 100 100 100 100 100 100 100 100 97 63 94 100 100 100 100 100 100 100 100 100 100 100 100 100 100 100 97 100 100 100
95 100 100 100 100 86 99 100 100 98 77 100 100 100 100 100 100 100 100 100 100 100 100 100 97 98 62 100 83 100 100 100
99 99 99 100 100 100 96 65 100 100 100 100 100 100 100 100 100 100 100 100 100 100 100 99 100 88 100 98 100 100 100 100
100 100 86 88 100 100 100 100 100 100 98 100 100 70 100 100 100 100 100 100 100 98 100 100 100 100 98 100 100 100 100 100

GFSFLT2_prec_cloud_051.txt.gz
Cloud_Cover
100 100 100 100 100 100 100 100 100 100 100 100 97 100 68 14 18 10 100 78 39 96 30 44 5 5 61 5 5 58 60 5
100 100 100 100 100 100 100 100 100 100 100 100 96 100 100 74 91 36 100 50 29 83 100 100 40 23 52 99 100 100 32 52
100 100 100 100 100 100 100 100 100 100 100 100 100 100 100 100 80 8 99 100 99 70 100 100 100 100 100 100 100 100 100 81
100 100 100 100 100 100 100 100 100 100 100 100 100 98 92 66 55 97 81 31 61 99 99 100 94 20 59 56 96 82 94 100
100 100 100 100 100 100 100 100 100 100 100 100 100 100 76 72 98 79 53 100 56 11 69 100 100 68 81 100 87 100 100 100
100 100 100 100 100 100 100 100 100 100 100 100 100 100 99 100 60 58 87 100 96 14 94 100 64 59 93 100 100 100 95 76
100 100 100 100 100 100 100 100 100 100 100 100 100 100 100 94 99 75 98 90 100 100 89 79 36 57 100 100 100 100 99 98
100 100 100 100 100 100 100 100 100 100 100 100 100 90 100 100 89 100 84 82 100 100 81 50 56 100 93 78 75 88 81 99
100 100 100 100 100 100 100 100 100 100 100 100 100 100 100 100 100 100 100 100 100 100 100 82 88 100 84 9 99 99 94 100
100 100 100 100 100 100 100 100 100 100 99 100 100 100 99 88 95 100 100 92 93 86 98 100 98 84 98 100 100 98 100 100
100 100 100 100 100 100 100 100 100 100 100 100 100 100 98 100 100 98 100 82 82 91 99 75 32 77 100 100 100 100 100 100
100 100 100 100 100 100 100 100 100 100 100 100 100 100 100 100 100 100 97 100 100 100 96 85 100 100 100 100 100 100 100 100
100 100 100 100 100 100 100 100 100 100 100 100 100 100 100 100 100 100 100 100 100 100 100 100 100 100 100 100 100 100 100 100
100 100 100 100 100 100 100 100 100 100 100 100 100 100 100 100 100 100 100 91 100 100 100 100 100 100 100 100 100 100 100 100
100 100 100 100 100 100 100 100 100 100 100 100 100 100 100 100 100 100 100 100 99 100 99 100 100 100 100 100 100 100 100 100
35 97 100 100 100 100 100 100 100 100 100 100 100 100 100 100 100 100 100 88 100 100 100 100 100 100 100 100 100 100 100 100
94 100 100 100 100 100 100 100 100 100 100 100 100 100 100 100 100 100 100 100 100 100 100 100 100 100 100 100 100 100 100 100
100 100 100 100 100 100 100 100 100 100 100 100 100 100 100 100 26 62 100 100 100 100 100 100 100 100 90 86 88 100 100 97
26 100 100 100 100 100 100 100 100 100 100 100 99 96 62 100 100 100 100 100 100 100 100 100 100 100 100 100 87 100 89 91
1 5 99 87 98 100 100 100 78 96 94 96 100 100 100 100 100 100 100 100 100 100 100 100 100 99 100 100 97 100 100 100

GFSFLT2_prec_cloud_054.txt.gz
Cloud_Cover
100 100 96 96 100 100 100 100 100 100 100 100 100 100 100 100 98 70 100 95 83 15 5 49 100 62 100 53 71 74 53 5
100 100 100 100 100 100 100 100 100 100 100 100 100 100 100 100 91 100 100 100 22 13 10 60 77 96 100 83 56 93 94 95
100 100 100 100 100 100 100 100 100 100 100 100 100 100 98 99 42 93 100 100 57 99 42 83 100 100 100 100 85 56 19 34
100 100 100 100 100 100 100 100 100 100 100 100 100 100 100 100 46 73 100 100 100 100 90 97 100 100 79 100 100 100 100 100
100 100 100 100 100 100 100 100 100 100 100 100 100 100 100 100 97 52 100 100 100 100 69 72 96 74 69 70 91 88 85 99
100 100 100 100 100 100 100 100 100 100 100 100 100 100 100 100 89 77 43 100 100 100 100 78 93 87 91 100 100 100 100 100
100 100 100 100 100 100 100 100 100 100 100 100 100 100 100 100 100 100 86 51 100 88 75 79 98 93 42 86 100 100 100 100
100 100 100 100 100 100 100 100 100 100 100 100 100 100 100 100 93 100 99 86 100 83 99 69 8 98 99 100 100 100 100 100
100 100 100 100 100 100 100 100 100 100 100 100 100 100 100 100 100 100 96 100 100 100 84 100 90 94 100 99 77 100 100 100
100 100 100 100 100 100 100 100 100 100 100 100 100 100 100 100 100 100 100 100 99 92 100 100 94 92 100 100 100 100 100 100
100 100 100 100 100 100 100 100 100 100 100 100 100 100 100 100 100 100 98 93 99 97 100 100 100 91 94 98 100 100 100 100
100 100 100 100 100 100 100 100 100 100 100 100 100 100 100 100 100 100 100 100 100 100 100 96 100 100 100 100 100 100 100 100
100 100 100 100 100 100 100 100 100 100 100 100 100 100 100 100 100 100 100 100 100 100 100 100 100 100 100 100 100 100 100 100
100 100 100 100 100 100 100 100 100 100 100 100 100 100 100 100 100 100 100 100 100 100 100 100 100 100 94 100 100 100 100 100
100 100 100 100 100 100 100 100 100 100 100 100 100 100 100 100 100 100 100 100 100 100 100 100 100 100 100 100 100 100 100 100
100 100 100 100 100 100 100 100 100 100 100 100 100 100 100 100 100 100 100 100 100 100 100 100 100 99 96 98 89 100 100 100
100 100 100 100 100 100 100 100 100 100 100 100 100 100 100 100 100 100 100 100 100 100 100 100 100 100 80 100 100 100 100 92
89 100 100 100 100 100 100 100 100 100 100 100 100 100 100 100 100 100 100 100 100 100 76 91 64 100 100 100 100 100 100 100
56 72 100 100 100 100 100 100 100 100 100 100 100 100 100 100 100 99 100 100 88 76 98 94 63 99 100 100 97 100 100 100
13 33 11 85 100 100 100 100 100 100 100 100 100 100 100 100 99 85 100 98 99 100 66 88 98 100 100 100 100 98 100 100

GFSFLT2_prec_cloud_057.txt.gz
Cloud_Cover
100 100 100 100 75 97 72 100 9 100 92 100 100 100 100 100 100 100 79 80 28 30 39 26 11 76 83 83 100 80 12 21
79 100 100 100 100 100 99 78 99 100 86 55 100 100 100 100 100 100 85 16 26 48 67 5 13 61 5 82 100 100 99 40
100 100 100 100 100 100 100 100 100 100 100 100 100 100 100 100 100 97 6 5 26 58 12 28 22 76 52 76 100 100 100 97
100 100 100 100 100 100 100 100 100 100 100 100 100 100 100 100 100 100 82 79 53 6 5 93 94 78 64 99 100 100 100 100
100 100 100 100 100 100 100 100 100 100 100 100 100 100 100 100 100 100 100 71 70 38 34 98 35 39 92 100 100 100 100 100
100 100 100 100 100 100 100 100 100 100 100 100 100 100 100 100 100 100 89 7 45 76 66 83 100 84 90 99 62 94 95 100
100 100 100 100 100 100 100 100 100 100 100 100 100 100 100 100 100 100 100 67 87 100 99 100 100 100 100 89 97 98 100 100
100 100 100 100 100 100 100 100 100 100 100 100 100 100 100 100 100 100 100 100 99 91 74 78 79 93 97 84 98 100 100 99
100 100 100 100 100 100 100 100 100 100 100 100 100 100 100 100 100 100 100 95 100 92 67 80 99 87 100 75 92 91 100 100
100 100 100 100 100 100 100 100 100 100 100 100 100 100 100 100 100 100 100 100 100 100 95 95 62 79 98 82 100 100 98 100
100 100 100 100 100 100 100 100 100 100 100 100 100 100 100 100 100 99 88 96 100 100 100 92 90 100 100 97 100 100 100 100
100 100 100 100 100 100 100 100 100 100 100 100 100 100 100 100 72 78 52 100 100 100 100 100 100 100 100 100 100 100 100 100
100 100 100 100 100 100 100 100 100 100 100 100 100 100 100 100 100 100 100 100 100 100 100 100 92 100 100 100 100 100 100 100
100 100 100 100 100 100 100 100 100 100 100 100 98 99 100 100 100 100 100 100 100 100 100 100 100 100 100 100 100 100 100 63
100 100 100 100 100 100 100 100 100 100 100 100 100 100 100 100 100 100 100 100 100 100 100 100 100 100 100 100 100 100 76 100
70 68 96 100 100 100 100 100 100 100 100 100 100 100 100 100 100 100 100 100 100 100 100 100 100 100 100 100 100 90 100 100
60 94 100 100 100 100 100 100 100 100 100 100 100 100 100 100 100 100 100 100 100 100 100 100 100 100 100 92 100 99 100 100
83 60 100 100 100 100 100 100 100 100 100 100 100 100 100 100 100 100 100 100 100 100 100 100 100 100 100 100 94 100 100 100
72 58 65 84 100 100 100 100 100 100 100 100 100 100 100 100 100 100 100 100 100 100 100 100 100 100 100 100 100 100 100 100
48 43 35 41 100 100 100 100 100 100 100 100 100 100 100 100 100 100 100 100 100 100 100 100 100 100 100 96 82 100 100 100